Year,Month,Day,Hour,Minute,Value (Times are PST for temperature in C)
2010,06,30,00,00,9.20
2010,06,30,00,01,9.20
2010,06,30,00,02,9.10
2010,06,30,00,03,9.10
2010,06,30,00,04,9.10
2010,06,30,00,05,9.00
2010,06,30,00,06,9.00
2010,06,30,00,07,8.90
2010,06,30,00,08,8.90
2010,06,30,00,09,8.90
2010,06,30,00,10,8.90
2010,06,30,00,11,8.90
2010,06,30,00,12,8.90
2010,06,30,00,13,9.00
2010,06,30,00,14,9.00
2010,06,30,00,15,9.10
2010,06,30,00,16,9.10
2010,06,30,00,17,9.10
2010,06,30,00,18,9.10
2010,06,30,00,19,9.10
2010,06,30,00,20,9.10
2010,06,30,00,21,9.10
2010,06,30,00,22,9.10
2010,06,30,00,23,9.10
2010,06,30,00,24,9.10
2010,06,30,00,25,9.20
2010,06,30,00,26,9.20
2010,06,30,00,27,9.20
2010,06,30,00,28,9.20
2010,06,30,00,29,9.20
2010,06,30,00,30,9.20
2010,06,30,00,31,9.20
2010,06,30,00,32,9.20
2010,06,30,00,33,9.20
2010,06,30,00,34,9.20
2010,06,30,00,35,9.20
2010,06,30,00,36,9.20
2010,06,30,00,37,9.20
2010,06,30,00,38,9.20
2010,06,30,00,39,9.10
2010,06,30,00,40,9.10
2010,06,30,00,41,9.00
2010,06,30,00,42,9.00
2010,06,30,00,43,8.90
2010,06,30,00,44,8.80
2010,06,30,00,45,8.80
2010,06,30,00,46,8.70
2010,06,30,00,47,8.60
2010,06,30,00,48,8.60
2010,06,30,00,49,8.40
2010,06,30,00,50,8.30
2010,06,30,00,51,8.20
2010,06,30,00,52,8.20
2010,06,30,00,53,8.20
2010,06,30,00,54,8.20
2010,06,30,00,55,8.20
2010,06,30,00,56,8.30
2010,06,30,00,57,8.30
2010,06,30,00,58,8.40
2010,06,30,00,59,8.40
2010,06,30,01,00,8.40
2010,06,30,01,01,8.40
2010,06,30,01,02,8.50
2010,06,30,01,03,8.50
2010,06,30,01,04,8.40
2010,06,30,01,05,8.40
2010,06,30,01,06,8.40
2010,06,30,01,07,8.40
2010,06,30,01,08,8.50
2010,06,30,01,09,8.50
2010,06,30,01,10,8.60
2010,06,30,01,11,8.60
2010,06,30,01,12,8.60
2010,06,30,01,13,8.60
2010,06,30,01,14,8.60
2010,06,30,01,15,8.60
2010,06,30,01,16,8.60
2010,06,30,01,17,8.50
2010,06,30,01,18,8.50
2010,06,30,01,19,8.50
2010,06,30,01,20,8.40
2010,06,30,01,21,8.40
2010,06,30,01,22,8.40
2010,06,30,01,23,8.40
2010,06,30,01,24,8.40
2010,06,30,01,25,8.40
2010,06,30,01,26,8.40
2010,06,30,01,27,8.40
2010,06,30,01,28,8.40
2010,06,30,01,29,8.40
2010,06,30,01,30,8.40
2010,06,30,01,31,8.40
2010,06,30,01,32,8.40
2010,06,30,01,33,8.40
2010,06,30,01,34,8.40
2010,06,30,01,35,8.40
2010,06,30,01,36,8.40
2010,06,30,01,37,8.40
2010,06,30,01,38,8.40
2010,06,30,01,39,8.40
2010,06,30,01,40,8.40
2010,06,30,01,41,8.40
2010,06,30,01,42,8.30
2010,06,30,01,43,8.30
2010,06,30,01,44,8.30
2010,06,30,01,45,8.30
2010,06,30,01,46,8.30
2010,06,30,01,47,8.20
2010,06,30,01,48,8.20
2010,06,30,01,49,8.20
2010,06,30,01,50,8.20
2010,06,30,01,51,8.10
2010,06,30,01,52,8.10
2010,06,30,01,53,8.10
2010,06,30,01,54,8.10
2010,06,30,01,55,8.10
2010,06,30,01,56,8.10
2010,06,30,01,57,8.10
2010,06,30,01,58,8.10
2010,06,30,01,59,8.10
2010,06,30,02,00,8.10
2010,06,30,02,01,8.10
2010,06,30,02,02,8.10
2010,06,30,02,03,8.10
2010,06,30,02,04,8.10
2010,06,30,02,05,8.00
2010,06,30,02,06,8.00
2010,06,30,02,07,8.00
2010,06,30,02,08,7.90
2010,06,30,02,09,7.90
2010,06,30,02,10,7.90
2010,06,30,02,11,7.80
2010,06,30,02,12,7.80
2010,06,30,02,13,7.70
2010,06,30,02,14,7.70
2010,06,30,02,15,7.70
2010,06,30,02,16,7.60
2010,06,30,02,17,7.60
2010,06,30,02,18,7.50
2010,06,30,02,19,7.50
2010,06,30,02,20,7.40
2010,06,30,02,21,7.40
2010,06,30,02,22,7.30
2010,06,30,02,23,7.30
2010,06,30,02,24,7.20
2010,06,30,02,25,7.20
2010,06,30,02,26,7.10
2010,06,30,02,27,7.10
2010,06,30,02,28,7.00
2010,06,30,02,29,6.90
2010,06,30,02,30,6.90
2010,06,30,02,31,6.80
2010,06,30,02,32,6.80
2010,06,30,02,33,6.70
2010,06,30,02,34,6.70
2010,06,30,02,35,6.70
2010,06,30,02,36,6.70
2010,06,30,02,37,6.70
2010,06,30,02,38,6.70
2010,06,30,02,39,6.70
2010,06,30,02,40,6.70
2010,06,30,02,41,6.80
2010,06,30,02,42,6.80
2010,06,30,02,43,6.90
2010,06,30,02,44,7.00
2010,06,30,02,45,7.10
2010,06,30,02,46,7.20
2010,06,30,02,47,7.20
2010,06,30,02,48,7.20
2010,06,30,02,49,7.30
2010,06,30,02,50,7.40
2010,06,30,02,51,7.60
2010,06,30,02,52,7.70
2010,06,30,02,53,7.80
2010,06,30,02,54,7.80
2010,06,30,02,55,7.90
2010,06,30,02,56,7.90
2010,06,30,02,57,7.90
2010,06,30,02,58,8.00
2010,06,30,02,59,8.00
2010,06,30,03,00,8.00
2010,06,30,03,01,8.10
2010,06,30,03,02,8.10
2010,06,30,03,03,8.10
2010,06,30,03,04,8.10
2010,06,30,03,05,8.10
2010,06,30,03,06,8.10
2010,06,30,03,07,8.10
2010,06,30,03,08,8.10
2010,06,30,03,09,8.10
2010,06,30,03,10,8.10
2010,06,30,03,11,8.10
2010,06,30,03,12,8.10
2010,06,30,03,13,8.10
2010,06,30,03,14,8.00
2010,06,30,03,15,8.00
2010,06,30,03,16,8.00
2010,06,30,03,17,7.90
2010,06,30,03,18,7.90
2010,06,30,03,19,8.00
2010,06,30,03,20,8.00
2010,06,30,03,21,8.00
2010,06,30,03,22,8.00
2010,06,30,03,23,8.00
2010,06,30,03,24,8.10
2010,06,30,03,25,8.10
2010,06,30,03,26,8.10
2010,06,30,03,27,8.10
2010,06,30,03,28,8.10
2010,06,30,03,29,8.10
2010,06,30,03,30,8.10
2010,06,30,03,31,8.10
2010,06,30,03,32,8.10
2010,06,30,03,33,8.10
2010,06,30,03,34,8.10
2010,06,30,03,35,8.10
2010,06,30,03,36,8.10
2010,06,30,03,37,8.10
2010,06,30,03,38,8.10
2010,06,30,03,39,8.10
2010,06,30,03,40,8.10
2010,06,30,03,41,8.10
2010,06,30,03,42,8.10
2010,06,30,03,43,8.10
2010,06,30,03,44,8.00
2010,06,30,03,45,8.00
2010,06,30,03,46,8.00
2010,06,30,03,47,7.90
2010,06,30,03,48,7.90
2010,06,30,03,49,7.80
2010,06,30,03,50,7.80
2010,06,30,03,51,7.80
2010,06,30,03,52,7.70
2010,06,30,03,53,7.70
2010,06,30,03,54,7.60
2010,06,30,03,55,7.60
2010,06,30,03,56,7.50
2010,06,30,03,57,7.50
2010,06,30,03,58,7.40
2010,06,30,03,59,7.40
2010,06,30,04,00,7.40
2010,06,30,04,01,7.30
2010,06,30,04,02,7.30
2010,06,30,04,03,7.30
2010,06,30,04,04,7.30
2010,06,30,04,05,7.30
2010,06,30,04,06,7.20
2010,06,30,04,07,7.20
2010,06,30,04,08,7.20
2010,06,30,04,09,7.30
2010,06,30,04,10,7.30
2010,06,30,04,11,7.30
2010,06,30,04,12,7.30
2010,06,30,04,13,7.30
2010,06,30,04,14,7.30
2010,06,30,04,15,7.30
2010,06,30,04,16,7.30
2010,06,30,04,17,7.30
2010,06,30,04,18,7.30
2010,06,30,04,19,7.30
2010,06,30,04,20,7.30
2010,06,30,04,21,7.30
2010,06,30,04,22,7.20
2010,06,30,04,23,7.20
2010,06,30,04,24,7.20
2010,06,30,04,25,7.20
2010,06,30,04,26,7.10
2010,06,30,04,27,7.10
2010,06,30,04,28,7.00
2010,06,30,04,29,7.00
2010,06,30,04,30,6.90
2010,06,30,04,31,6.90
2010,06,30,04,32,6.90
2010,06,30,04,33,6.80
2010,06,30,04,34,6.80
2010,06,30,04,35,6.80
2010,06,30,04,36,6.70
2010,06,30,04,37,6.70
2010,06,30,04,38,6.70
2010,06,30,04,39,6.70
2010,06,30,04,40,6.80
2010,06,30,04,41,6.80
2010,06,30,04,42,6.90
2010,06,30,04,43,7.00
2010,06,30,04,44,7.00
2010,06,30,04,45,7.10
2010,06,30,04,46,7.10
2010,06,30,04,47,7.20
2010,06,30,04,48,7.20
2010,06,30,04,49,7.20
2010,06,30,04,50,7.20
2010,06,30,04,51,7.20
2010,06,30,04,52,7.20
2010,06,30,04,53,7.30
2010,06,30,04,54,7.30
2010,06,30,04,55,7.40
2010,06,30,04,56,7.40
2010,06,30,04,57,7.40
2010,06,30,04,58,7.40
2010,06,30,04,59,7.40
2010,06,30,05,00,7.40
2010,06,30,05,01,7.40
2010,06,30,05,02,7.40
2010,06,30,05,03,7.30
2010,06,30,05,04,7.30
2010,06,30,05,05,7.20
2010,06,30,05,06,7.20
2010,06,30,05,07,7.20
2010,06,30,05,08,7.20
2010,06,30,05,09,7.10
2010,06,30,05,10,7.10
2010,06,30,05,11,7.00
2010,06,30,05,12,7.00
2010,06,30,05,13,6.90
2010,06,30,05,14,6.90
2010,06,30,05,15,6.90
2010,06,30,05,16,6.90
2010,06,30,05,17,6.80
2010,06,30,05,18,6.80
2010,06,30,05,19,6.80
2010,06,30,05,20,6.70
2010,06,30,05,21,6.70
2010,06,30,05,22,6.70
2010,06,30,05,23,6.60
2010,06,30,05,24,6.60
2010,06,30,05,25,6.50
2010,06,30,05,26,6.50
2010,06,30,05,27,6.40
2010,06,30,05,28,6.40
2010,06,30,05,29,6.30
2010,06,30,05,30,6.30
2010,06,30,05,31,6.30
2010,06,30,05,32,6.30
2010,06,30,05,33,6.30
2010,06,30,05,34,6.30
2010,06,30,05,35,6.30
2010,06,30,05,36,6.30
2010,06,30,05,37,6.30
2010,06,30,05,38,6.30
2010,06,30,05,39,6.30
2010,06,30,05,40,6.30
2010,06,30,05,41,6.30
2010,06,30,05,42,6.20
2010,06,30,05,43,6.20
2010,06,30,05,44,6.20
2010,06,30,05,45,6.20
2010,06,30,05,46,6.20
2010,06,30,05,47,6.20
2010,06,30,05,48,6.20
2010,06,30,05,49,6.20
2010,06,30,05,50,6.20
2010,06,30,05,51,6.20
2010,06,30,05,52,6.20
2010,06,30,05,53,6.20
2010,06,30,05,54,6.10
2010,06,30,05,55,6.10
2010,06,30,05,56,6.10
2010,06,30,05,57,6.10
2010,06,30,05,58,6.10
2010,06,30,05,59,6.00
2010,06,30,06,00,6.00
2010,06,30,06,01,6.00
2010,06,30,06,02,6.00
2010,06,30,06,03,6.00
2010,06,30,06,04,5.90
2010,06,30,06,05,5.90
2010,06,30,06,06,5.90
2010,06,30,06,07,5.90
2010,06,30,06,08,5.90
2010,06,30,06,09,5.90
2010,06,30,06,10,5.90
2010,06,30,06,11,5.90
2010,06,30,06,12,5.90
2010,06,30,06,13,5.90
2010,06,30,06,14,5.90
2010,06,30,06,15,5.90
2010,06,30,06,16,5.90
2010,06,30,06,17,5.90
2010,06,30,06,18,5.90
2010,06,30,06,19,5.90
2010,06,30,06,20,5.90
2010,06,30,06,21,5.90
2010,06,30,06,22,5.90
2010,06,30,06,23,5.90
2010,06,30,06,24,5.90
2010,06,30,06,25,5.80
2010,06,30,06,26,5.80
2010,06,30,06,27,5.80
2010,06,30,06,28,5.80
2010,06,30,06,29,5.80
2010,06,30,06,30,5.80
2010,06,30,06,31,5.80
2010,06,30,06,32,5.80
2010,06,30,06,33,5.80
2010,06,30,06,34,5.80
2010,06,30,06,35,5.80
2010,06,30,06,36,5.90
2010,06,30,06,37,5.90
2010,06,30,06,38,5.90
2010,06,30,06,39,5.90
2010,06,30,06,40,5.90
2010,06,30,06,41,6.00
2010,06,30,06,42,6.00
2010,06,30,06,43,6.10
2010,06,30,06,44,6.10
2010,06,30,06,45,6.10
2010,06,30,06,46,6.10
2010,06,30,06,47,6.20
2010,06,30,06,48,6.20
2010,06,30,06,49,6.30
2010,06,30,06,50,6.30
2010,06,30,06,51,6.40
2010,06,30,06,52,6.60
2010,06,30,06,53,6.80
2010,06,30,06,54,6.90
2010,06,30,06,55,7.00
2010,06,30,06,56,7.10
2010,06,30,06,57,7.20
2010,06,30,06,58,7.20
2010,06,30,06,59,7.30
2010,06,30,07,00,7.40
2010,06,30,07,01,7.50
2010,06,30,07,02,7.60
2010,06,30,07,03,7.70
2010,06,30,07,04,7.80
2010,06,30,07,05,8.00
2010,06,30,07,06,8.10
2010,06,30,07,07,8.20
2010,06,30,07,08,8.30
2010,06,30,07,09,8.40
2010,06,30,07,10,8.40
2010,06,30,07,11,8.50
2010,06,30,07,12,8.60
2010,06,30,07,13,8.60
2010,06,30,07,14,8.70
2010,06,30,07,15,8.80
2010,06,30,07,16,8.80
2010,06,30,07,17,8.90
2010,06,30,07,18,8.90
2010,06,30,07,19,9.00
2010,06,30,07,20,9.00
2010,06,30,07,21,9.10
2010,06,30,07,22,9.10
2010,06,30,07,23,9.20
2010,06,30,07,24,9.20
2010,06,30,07,25,9.30
2010,06,30,07,26,9.40
2010,06,30,07,27,9.50
2010,06,30,07,28,9.60
2010,06,30,07,29,9.60
2010,06,30,07,30,9.70
2010,06,30,07,31,9.80
2010,06,30,07,32,9.90
2010,06,30,07,33,10.00
2010,06,30,07,34,10.10
2010,06,30,07,35,10.20
2010,06,30,07,36,10.30
2010,06,30,07,37,10.40
2010,06,30,07,38,10.50
2010,06,30,07,39,10.50
2010,06,30,07,40,10.60
2010,06,30,07,41,10.70
2010,06,30,07,42,10.70
2010,06,30,07,43,10.80
2010,06,30,07,44,10.80
2010,06,30,07,45,10.90
2010,06,30,07,46,11.00
2010,06,30,07,47,11.10
2010,06,30,07,48,11.20
2010,06,30,07,49,11.30
2010,06,30,07,50,11.30
2010,06,30,07,51,11.40
2010,06,30,07,52,11.40
2010,06,30,07,53,11.50
2010,06,30,07,54,11.50
2010,06,30,07,55,11.50
2010,06,30,07,56,11.60
2010,06,30,07,57,11.60
2010,06,30,07,58,11.60
2010,06,30,07,59,11.60
2010,06,30,08,00,11.60
2010,06,30,08,01,11.70
2010,06,30,08,02,11.70
2010,06,30,08,03,11.70
2010,06,30,08,04,11.80
2010,06,30,08,05,11.80
2010,06,30,08,06,11.80
2010,06,30,08,07,11.80
2010,06,30,08,08,11.80
2010,06,30,08,09,11.80
2010,06,30,08,10,11.90
2010,06,30,08,11,11.90
2010,06,30,08,12,12.00
2010,06,30,08,13,12.10
2010,06,30,08,14,12.20
2010,06,30,08,15,12.30
2010,06,30,08,16,12.30
2010,06,30,08,17,12.40
2010,06,30,08,18,12.50
2010,06,30,08,19,12.60
2010,06,30,08,20,12.70
2010,06,30,08,21,12.80
2010,06,30,08,22,12.80
2010,06,30,08,23,12.80
2010,06,30,08,24,12.80
2010,06,30,08,25,12.80
2010,06,30,08,26,12.90
2010,06,30,08,27,12.80
2010,06,30,08,28,12.80
2010,06,30,08,29,12.80
2010,06,30,08,30,12.70
2010,06,30,08,31,12.70
2010,06,30,08,32,12.70
2010,06,30,08,33,12.70
2010,06,30,08,34,12.60
2010,06,30,08,35,12.60
2010,06,30,08,36,12.60
2010,06,30,08,37,12.60
2010,06,30,08,38,12.60
2010,06,30,08,39,12.70
2010,06,30,08,40,12.70
2010,06,30,08,41,12.70
2010,06,30,08,42,12.70
2010,06,30,08,43,12.70
2010,06,30,08,44,12.70
2010,06,30,08,45,12.70
2010,06,30,08,46,12.70
2010,06,30,08,47,12.70
2010,06,30,08,48,12.70
2010,06,30,08,49,12.80
2010,06,30,08,50,12.80
2010,06,30,08,51,12.80
2010,06,30,08,52,12.90
2010,06,30,08,53,12.90
2010,06,30,08,54,12.90
2010,06,30,08,55,12.90
2010,06,30,08,56,12.90
2010,06,30,08,57,12.90
2010,06,30,08,58,12.90
2010,06,30,08,59,12.90
2010,06,30,09,00,12.90
2010,06,30,09,01,12.90
2010,06,30,09,02,12.80
2010,06,30,09,03,12.90
2010,06,30,09,04,12.90
2010,06,30,09,05,12.90
2010,06,30,09,06,12.90
2010,06,30,09,07,12.90
2010,06,30,09,08,12.90
2010,06,30,09,09,13.00
2010,06,30,09,10,13.00
2010,06,30,09,11,13.00
2010,06,30,09,12,13.10
2010,06,30,09,13,13.10
2010,06,30,09,14,13.10
2010,06,30,09,15,13.10
2010,06,30,09,16,13.00
2010,06,30,09,17,13.00
2010,06,30,09,18,13.00
2010,06,30,09,19,13.00
2010,06,30,09,20,13.00
2010,06,30,09,21,12.90
2010,06,30,09,22,12.80
2010,06,30,09,23,12.70
2010,06,30,09,24,12.70
2010,06,30,09,25,12.60
2010,06,30,09,26,12.60
2010,06,30,09,27,12.50
2010,06,30,09,28,12.50
2010,06,30,09,29,12.40
2010,06,30,09,30,12.40
2010,06,30,09,31,12.40
2010,06,30,09,32,12.40
2010,06,30,09,33,12.40
2010,06,30,09,34,12.40
2010,06,30,09,35,12.40
2010,06,30,09,36,12.40
2010,06,30,09,37,12.40
2010,06,30,09,38,12.40
2010,06,30,09,39,12.40
2010,06,30,09,40,12.40
2010,06,30,09,41,12.40
2010,06,30,09,42,12.50
2010,06,30,09,43,12.50
2010,06,30,09,44,12.50
2010,06,30,09,45,12.50
2010,06,30,09,46,12.60
2010,06,30,09,47,12.60
2010,06,30,09,48,12.60
2010,06,30,09,49,12.60
2010,06,30,09,50,12.70
2010,06,30,09,51,12.70
2010,06,30,09,52,12.70
2010,06,30,09,53,12.70
2010,06,30,09,54,12.70
2010,06,30,09,55,12.60
2010,06,30,09,56,12.60
2010,06,30,09,57,12.60
2010,06,30,09,58,12.60
2010,06,30,09,59,12.70
2010,06,30,10,00,12.70
2010,06,30,10,01,12.80
2010,06,30,10,02,12.90
2010,06,30,10,03,13.00
2010,06,30,10,04,13.10
2010,06,30,10,05,13.20
2010,06,30,10,06,13.20
2010,06,30,10,07,13.30
2010,06,30,10,08,13.30
2010,06,30,10,09,13.30
2010,06,30,10,10,13.40
2010,06,30,10,11,13.40
2010,06,30,10,12,13.40
2010,06,30,10,13,13.50
2010,06,30,10,14,13.50
2010,06,30,10,15,13.50
2010,06,30,10,16,13.60
2010,06,30,10,17,13.60
2010,06,30,10,18,13.70
2010,06,30,10,19,13.80
2010,06,30,10,20,13.80
2010,06,30,10,21,13.90
2010,06,30,10,22,14.00
2010,06,30,10,23,14.10
2010,06,30,10,24,14.20
2010,06,30,10,25,14.30
2010,06,30,10,26,14.40
2010,06,30,10,27,14.50
2010,06,30,10,28,14.60
2010,06,30,10,29,14.50
2010,06,30,10,30,14.50
2010,06,30,10,31,14.40
2010,06,30,10,32,14.40
2010,06,30,10,33,14.40
2010,06,30,10,34,14.30
2010,06,30,10,35,14.30
2010,06,30,10,36,14.30
2010,06,30,10,37,14.30
2010,06,30,10,38,14.30
2010,06,30,10,39,14.20
2010,06,30,10,40,14.10
2010,06,30,10,41,14.00
2010,06,30,10,42,13.90
2010,06,30,10,43,13.80
2010,06,30,10,44,13.70
2010,06,30,10,45,13.60
2010,06,30,10,46,13.50
2010,06,30,10,47,13.50
2010,06,30,10,48,13.40
2010,06,30,10,49,13.40
2010,06,30,10,50,13.40
2010,06,30,10,51,13.30
2010,06,30,10,52,13.30
2010,06,30,10,53,13.30
2010,06,30,10,54,13.30
2010,06,30,10,55,13.30
2010,06,30,10,56,13.30
2010,06,30,10,57,13.30
2010,06,30,10,58,13.40
2010,06,30,10,59,13.50
2010,06,30,11,00,13.50
2010,06,30,11,01,13.60
2010,06,30,11,02,13.60
2010,06,30,11,03,13.70
2010,06,30,11,04,13.70
2010,06,30,11,05,13.70
2010,06,30,11,06,13.70
2010,06,30,11,07,13.70
2010,06,30,11,08,13.70
2010,06,30,11,09,13.60
2010,06,30,11,10,13.60
2010,06,30,11,11,13.60
2010,06,30,11,12,13.60
2010,06,30,11,13,13.70
2010,06,30,11,14,13.70
2010,06,30,11,15,13.70
2010,06,30,11,16,13.70
2010,06,30,11,17,13.70
2010,06,30,11,18,13.70
2010,06,30,11,19,13.70
2010,06,30,11,20,13.60
2010,06,30,11,21,13.60
2010,06,30,11,22,13.60
2010,06,30,11,23,13.70
2010,06,30,11,24,13.70
2010,06,30,11,25,13.70
2010,06,30,11,26,13.70
2010,06,30,11,27,13.70
2010,06,30,11,28,13.70
2010,06,30,11,29,13.70
2010,06,30,11,30,13.70
2010,06,30,11,31,13.70
2010,06,30,11,32,13.80
2010,06,30,11,33,13.80
2010,06,30,11,34,13.90
2010,06,30,11,35,13.90
2010,06,30,11,36,14.00
2010,06,30,11,37,14.10
2010,06,30,11,38,14.10
2010,06,30,11,39,14.20
2010,06,30,11,40,14.20
2010,06,30,11,41,14.30
2010,06,30,11,42,14.30
2010,06,30,11,43,14.30
2010,06,30,11,44,14.40
2010,06,30,11,45,14.40
2010,06,30,11,46,14.50
2010,06,30,11,47,14.60
2010,06,30,11,48,14.60
2010,06,30,11,49,14.50
2010,06,30,11,50,14.50
2010,06,30,11,51,14.60
2010,06,30,11,52,14.60
2010,06,30,11,53,14.60
2010,06,30,11,54,14.70
2010,06,30,11,55,14.80
2010,06,30,11,56,14.80
2010,06,30,11,57,15.00
2010,06,30,11,58,15.00
2010,06,30,11,59,15.00
2010,06,30,12,00,15.00
2010,06,30,12,01,15.00
2010,06,30,12,02,15.00
2010,06,30,12,03,15.00
2010,06,30,12,04,15.00
2010,06,30,12,05,15.10
2010,06,30,12,06,15.10
2010,06,30,12,07,15.20
2010,06,30,12,08,15.20
2010,06,30,12,09,15.20
2010,06,30,12,10,15.20
2010,06,30,12,11,15.10
2010,06,30,12,12,15.00
2010,06,30,12,13,15.00
2010,06,30,12,14,15.00
2010,06,30,12,15,14.90
2010,06,30,12,16,14.90
2010,06,30,12,17,14.90
2010,06,30,12,18,15.00
2010,06,30,12,19,15.00
2010,06,30,12,20,15.00
2010,06,30,12,21,15.10
2010,06,30,12,22,15.30
2010,06,30,12,23,15.30
2010,06,30,12,24,15.50
2010,06,30,12,25,15.60
2010,06,30,12,26,15.70
2010,06,30,12,27,15.70
2010,06,30,12,28,15.70
2010,06,30,12,29,15.60
2010,06,30,12,30,15.60
2010,06,30,12,31,15.60
2010,06,30,12,32,15.60
2010,06,30,12,33,15.60
2010,06,30,12,34,15.70
2010,06,30,12,35,15.70
2010,06,30,12,36,15.80
2010,06,30,12,37,15.80
2010,06,30,12,38,15.80
2010,06,30,12,39,15.80
2010,06,30,12,40,15.80
2010,06,30,12,41,15.80
2010,06,30,12,42,15.70
2010,06,30,12,43,15.60
2010,06,30,12,44,15.50
2010,06,30,12,45,15.40
2010,06,30,12,46,15.30
2010,06,30,12,47,15.30
2010,06,30,12,48,15.30
2010,06,30,12,49,15.20
2010,06,30,12,50,15.00
2010,06,30,12,51,15.00
2010,06,30,12,52,15.00
2010,06,30,12,53,15.00
2010,06,30,12,54,15.00
2010,06,30,12,55,15.00
2010,06,30,12,56,15.00
2010,06,30,12,57,15.00
2010,06,30,12,58,15.00
2010,06,30,12,59,15.00
2010,06,30,13,00,15.00
2010,06,30,13,01,15.00
2010,06,30,13,02,15.00
2010,06,30,13,03,15.00
2010,06,30,13,04,15.00
2010,06,30,13,05,15.00
2010,06,30,13,06,14.90
2010,06,30,13,07,14.80
2010,06,30,13,08,14.70
2010,06,30,13,09,14.70
2010,06,30,13,10,14.70
2010,06,30,13,11,14.70
2010,06,30,13,12,14.70
2010,06,30,13,13,14.80
2010,06,30,13,14,14.90
2010,06,30,13,15,15.00
2010,06,30,13,16,15.00
2010,06,30,13,17,15.20
2010,06,30,13,18,15.30
2010,06,30,13,19,15.30
2010,06,30,13,20,15.30
2010,06,30,13,21,15.30
2010,06,30,13,22,15.30
2010,06,30,13,23,15.30
2010,06,30,13,24,15.30
2010,06,30,13,25,15.30
2010,06,30,13,26,15.30
2010,06,30,13,27,15.40
2010,06,30,13,28,15.40
2010,06,30,13,29,15.50
2010,06,30,13,30,15.50
2010,06,30,13,31,15.60
2010,06,30,13,32,15.60
2010,06,30,13,33,15.70
2010,06,30,13,34,15.80
2010,06,30,13,35,15.90
2010,06,30,13,36,16.00
2010,06,30,13,37,16.00
2010,06,30,13,38,16.10
2010,06,30,13,39,16.10
2010,06,30,13,40,16.10
2010,06,30,13,41,16.10
2010,06,30,13,42,16.10
2010,06,30,13,43,16.10
2010,06,30,13,44,16.20
2010,06,30,13,45,16.20
2010,06,30,13,46,16.20
2010,06,30,13,47,16.20
2010,06,30,13,48,16.30
2010,06,30,13,49,16.30
2010,06,30,13,50,16.30
2010,06,30,13,51,16.30
2010,06,30,13,52,16.20
2010,06,30,13,53,16.10
2010,06,30,13,54,16.00
2010,06,30,13,55,15.80
2010,06,30,13,56,15.70
2010,06,30,13,57,15.70
2010,06,30,13,58,15.70
2010,06,30,13,59,15.80
2010,06,30,14,00,15.70
2010,06,30,14,01,15.70
2010,06,30,14,02,15.70
2010,06,30,14,03,15.60
2010,06,30,14,04,15.50
2010,06,30,14,05,15.40
2010,06,30,14,06,15.50
2010,06,30,14,07,15.60
2010,06,30,14,08,15.70
2010,06,30,14,09,15.70
2010,06,30,14,10,15.80
2010,06,30,14,11,15.80
2010,06,30,14,12,15.80
2010,06,30,14,13,15.80
2010,06,30,14,14,15.80
2010,06,30,14,15,15.80
2010,06,30,14,16,15.80
2010,06,30,14,17,15.70
2010,06,30,14,18,15.70
2010,06,30,14,19,15.70
2010,06,30,14,20,15.80
2010,06,30,14,21,15.80
2010,06,30,14,22,15.80
2010,06,30,14,23,15.90
2010,06,30,14,24,16.00
2010,06,30,14,25,16.00
2010,06,30,14,26,16.10
2010,06,30,14,27,16.10
2010,06,30,14,28,16.00
2010,06,30,14,29,15.90
2010,06,30,14,30,15.90
2010,06,30,14,31,15.80
2010,06,30,14,32,15.70
2010,06,30,14,33,15.60
2010,06,30,14,34,15.50
2010,06,30,14,35,15.50
2010,06,30,14,36,15.30
2010,06,30,14,37,15.30
2010,06,30,14,38,15.30
2010,06,30,14,39,15.30
2010,06,30,14,40,15.30
2010,06,30,14,41,15.30
2010,06,30,14,42,15.20
2010,06,30,14,43,15.10
2010,06,30,14,44,15.10
2010,06,30,14,45,15.10
2010,06,30,14,46,15.20
2010,06,30,14,47,15.30
2010,06,30,14,48,15.30
2010,06,30,14,49,15.40
2010,06,30,14,50,15.50
2010,06,30,14,51,15.60
2010,06,30,14,52,15.70
2010,06,30,14,53,15.70
2010,06,30,14,54,15.60
2010,06,30,14,55,15.50
2010,06,30,14,56,15.40
2010,06,30,14,57,15.20
2010,06,30,14,58,15.10
2010,06,30,14,59,15.10
2010,06,30,15,00,15.00
2010,06,30,15,01,15.00
2010,06,30,15,02,15.00
2010,06,30,15,03,15.00
2010,06,30,15,04,15.00
2010,06,30,15,05,15.00
2010,06,30,15,06,14.80
2010,06,30,15,07,14.70
2010,06,30,15,08,14.60
2010,06,30,15,09,14.50
2010,06,30,15,10,14.40
2010,06,30,15,11,14.40
2010,06,30,15,12,14.40
2010,06,30,15,13,14.40
2010,06,30,15,14,14.30
2010,06,30,15,15,14.30
2010,06,30,15,16,14.40
2010,06,30,15,17,14.40
2010,06,30,15,18,14.50
2010,06,30,15,19,14.50
2010,06,30,15,20,14.50
2010,06,30,15,21,14.60
2010,06,30,15,22,14.60
2010,06,30,15,23,14.60
2010,06,30,15,24,14.70
2010,06,30,15,25,14.80
2010,06,30,15,26,14.80
2010,06,30,15,27,14.90
2010,06,30,15,28,14.90
2010,06,30,15,29,15.00
2010,06,30,15,30,15.00
2010,06,30,15,31,15.00
2010,06,30,15,32,15.10
2010,06,30,15,33,15.00
2010,06,30,15,34,15.00
2010,06,30,15,35,15.00
2010,06,30,15,36,15.00
2010,06,30,15,37,15.00
2010,06,30,15,38,15.10
2010,06,30,15,39,15.10
2010,06,30,15,40,15.00
2010,06,30,15,41,15.00
2010,06,30,15,42,15.00
2010,06,30,15,43,15.00
2010,06,30,15,44,15.00
2010,06,30,15,45,15.00
2010,06,30,15,46,15.00
2010,06,30,15,47,15.00
2010,06,30,15,48,15.00
2010,06,30,15,49,15.00
2010,06,30,15,50,15.00
2010,06,30,15,51,15.00
2010,06,30,15,52,15.00
2010,06,30,15,53,15.00
2010,06,30,15,54,15.00
2010,06,30,15,55,15.00
2010,06,30,15,56,15.00
2010,06,30,15,57,15.00
2010,06,30,15,58,15.00
2010,06,30,15,59,15.00
2010,06,30,16,00,14.90
2010,06,30,16,01,14.90
2010,06,30,16,02,14.90
2010,06,30,16,03,15.00
2010,06,30,16,04,15.00
2010,06,30,16,05,15.00
2010,06,30,16,06,15.00
2010,06,30,16,07,15.00
2010,06,30,16,08,15.10
2010,06,30,16,09,15.20
2010,06,30,16,10,15.20
2010,06,30,16,11,15.30
2010,06,30,16,12,15.30
2010,06,30,16,13,15.40
2010,06,30,16,14,15.40
2010,06,30,16,15,15.50
2010,06,30,16,16,15.50
2010,06,30,16,17,15.60
2010,06,30,16,18,15.50
2010,06,30,16,19,15.40
2010,06,30,16,20,15.30
2010,06,30,16,21,15.30
2010,06,30,16,22,15.30
2010,06,30,16,23,15.20
2010,06,30,16,24,15.10
2010,06,30,16,25,15.00
2010,06,30,16,26,15.00
2010,06,30,16,27,15.00
2010,06,30,16,28,14.90
2010,06,30,16,29,14.90
2010,06,30,16,30,14.90
2010,06,30,16,31,14.90
2010,06,30,16,32,14.90
2010,06,30,16,33,14.90
2010,06,30,16,34,14.90
2010,06,30,16,35,15.00
2010,06,30,16,36,15.00
2010,06,30,16,37,15.00
2010,06,30,16,38,15.00
2010,06,30,16,39,15.00
2010,06,30,16,40,15.00
2010,06,30,16,41,15.00
2010,06,30,16,42,14.90
2010,06,30,16,43,14.90
2010,06,30,16,44,14.90
2010,06,30,16,45,14.90
2010,06,30,16,46,15.00
2010,06,30,16,47,15.00
2010,06,30,16,48,15.00
2010,06,30,16,49,15.00
2010,06,30,16,50,15.00
2010,06,30,16,51,15.00
2010,06,30,16,52,15.00
2010,06,30,16,53,15.00
2010,06,30,16,54,15.00
2010,06,30,16,55,15.00
2010,06,30,16,56,15.00
2010,06,30,16,57,15.00
2010,06,30,16,58,15.00
2010,06,30,16,59,15.00
2010,06,30,17,00,15.00
2010,06,30,17,01,15.00
2010,06,30,17,02,15.00
2010,06,30,17,03,15.00
2010,06,30,17,04,15.00
2010,06,30,17,05,15.00
2010,06,30,17,06,15.00
2010,06,30,17,07,15.00
2010,06,30,17,08,15.00
2010,06,30,17,09,15.00
2010,06,30,17,10,15.00
2010,06,30,17,11,15.00
2010,06,30,17,12,15.00
2010,06,30,17,13,15.00
2010,06,30,17,14,15.00
2010,06,30,17,15,15.00
2010,06,30,17,16,15.00
2010,06,30,17,17,15.00
2010,06,30,17,18,15.00
2010,06,30,17,19,15.00
2010,06,30,17,20,15.00
2010,06,30,17,21,15.00
2010,06,30,17,22,15.00
2010,06,30,17,23,15.00
2010,06,30,17,24,15.00
2010,06,30,17,25,15.00
2010,06,30,17,26,15.00
2010,06,30,17,27,15.00
2010,06,30,17,28,15.00
2010,06,30,17,29,15.00
2010,06,30,17,30,15.00
2010,06,30,17,31,15.00
2010,06,30,17,32,15.00
2010,06,30,17,33,15.00
2010,06,30,17,34,15.00
2010,06,30,17,35,15.10
2010,06,30,17,36,15.10
2010,06,30,17,37,15.20
2010,06,30,17,38,15.20
2010,06,30,17,39,15.10